Location: Newark
(41.4948°N, 13.7689°E)
Time: 22:09:03
(UTC+00:00)

Envisat - Visible Passes

Search period start: 11 December 2019 00:00
Search period end: 21 December 2019 00:00
Orbit: 764 x 766 km, 98.1° (Epoch: 11 December)

Date Brightness Start Highest point End Pass type
(mag) Time Alt. Az. Time Alt. Az. Time Alt. Az.
11 Dec 3.5 05:45:01 10° NNE 05:50:06 67° ESE 05:55:09 10° S visible
11 Dec 2.9 16:59:31 10° SSE 17:04:36 87° E 17:09:43 10° NNW visible
11 Dec 6.2 18:43:34 10° W 18:44:16 10° W 18:45:00 10° W visible
12 Dec 5.1 05:08:44 10° NE 05:13:11 30° E 05:17:36 10° SSE visible
12 Dec 3.4 16:23:16 10° SE 16:27:58 40° ENE 16:32:42 10° N visible
12 Dec 5.2 18:03:02 10° SSW 18:07:06 24° W 18:11:12 10° NW visible
13 Dec 6.1 04:33:37 10° ENE 04:36:03 13° E 04:38:29 10° ESE visible
13 Dec 3.8 17:25:11 10° S 17:30:07 53° W 17:35:06 10° NNW visible
14 Dec 4.0 05:33:49 10° NNE 05:38:48 53° E 05:43:44 10° S visible
14 Dec 2.9 16:48:18 10° SSE 16:53:20 70° ENE 16:58:25 10° N visible
14 Dec 6.0 18:30:22 10° WSW 18:32:51 14° W 18:35:21 10° WNW visible
15 Dec 5.5 04:57:45 10° NE 05:01:49 24° E 05:05:51 10° SSE visible
15 Dec 3.7 16:12:18 10° SE 16:16:45 32° ENE 16:21:14 10° N visible
15 Dec 4.9 17:51:18 10° SSW 17:55:44 30° W 18:00:12 10° NW visible
16 Dec 6.5 04:24:07 10° E 04:24:38 10° E 04:25:08 10° E visible
16 Dec 3.3 17:13:47 10° S 17:18:49 68° WSW 17:23:54 10° NNW visible
17 Dec 4.5 05:22:40 10° NNE 05:27:28 41° E 05:32:15 10° SSE visible
17 Dec 3.1 16:37:09 10° SSE 16:42:06 55° ENE 16:47:03 10° N visible
17 Dec 5.7 18:18:08 10° SW 18:21:27 17° W 18:24:47 10° NW visible
18 Dec 5.9 04:46:53 10° NE 04:50:26 19° E 04:53:58 10° SE visible
18 Dec 3.9 16:01:26 10° ESE 16:05:34 26° ENE 16:09:44 10° NNE visible
18 Dec 4.4 17:39:41 10° SSW 17:44:24 38° W 17:49:08 10° NNW visible
19 Dec 3.3 05:47:56 10° NNE 05:53:02 74° ESE 05:58:06 10° S visible
19 Dec 3.0 17:02:27 10° SSE 17:07:32 86° WSW 17:12:38 10° NNW visible
20 Dec 4.9 05:11:34 10° NNE 05:16:08 33° E 05:20:40 10° SSE visible
20 Dec 3.3 16:26:05 10° SE 16:30:51 43° ENE 16:35:40 10° N visible
20 Dec 5.4 18:06:10 10° SW 18:10:03 22° W 18:13:58 10° NW visible
